Location: Kapuskasing
(49.3803°N, 82.4001°W)
Time: 11:18:00
(UTC-04:00)

RS-44 - Pass Details

Date: 21 March 2026
Orbit: 1175 x 1510 km, 82.5° (Epoch: 11 April)

Event Time Altitude Azimuth Distance (km) Brightness Sun altitude
Rises 05:15:59 0° 343° (NNW) 4,469 ? -21.8°
Reaches altitude 10° 05:19:26 10° 330° (NNW) 3,538 ? -21.3°
Maximum altitude 05:25:37 23° 283° (WNW) 2,721 ? -20.4°
Enters shadow 05:26:13 23° 277° (W) 2,735 ? -20.3°
